Weather History for Plymouth, MA

Change the Weather History Date:

Monday, October 10, 2011

  Actual Average Record
Temperature  
Mean Temperature 69 °F -  
Max Temperature 84 °F 64 °F 86 °F (1949)
Min Temperature 54 °F 43 °F 30 °F (1975)
Cooling Degree Days 4    
Growing Degree Days 19 (Base 50)    
Moisture  
Dew Point 56 °F    
Average Humidity 66    
Maximum Humidity 90    
Minimum Humidity 41    
Precipitation  
Precipitation 0.00 in - - ()
Sea Level Pressure  
Sea Level Pressure 30.15 in    
Wind  
Wind Speed 4 mph (NW)    
Max Wind Speed 12 mph    
Max Gust Speed 16 mph    
Visibility 10 miles    
Events      
Averages and records for this station are not official NWS values.
T = Trace of Precipitation, MM = Missing Value Source: NWS Daily Summary

Daily Weather History Graph

Daily Weather History Graph

Search for Another Location

Airport:

Trip Planner

Search our weather history database for the weather conditions in past years. The results will help you decide how hot, cold, wet, or windy it might be!

Date:

Astronomy

Oct. 10, 2011 Rise Set
Actual Time 6:49 AM EDT 6:09 PM EDT
Civil Twilight 6:21 AM EDT 6:37 PM EDT
Nautical Twilight 5:49 AM EDT 7:10 PM EDT
Astronomical Twilight 5:16 AM EDT 7:42 PM EDT
Moon 5:12 PM EDT (10/10) 5:27 AM EDT (10/10)
Length of Visible Light 12h 16m
Length of Day
11h 20m
Waxing Gibbous, 98% of the Moon is Illuminated
Oct 10
Waxing Gibbous
Oct 11
Full
Oct 19
Last Quarter
Oct 26
New
Nov 2
First Quarter

Hourly Weather History & Observations

Time (EDT) Temp. Heat Index Dew Point Humidity Pressure Visibility Wind Dir Wind Speed Gust Speed Precip Events Conditions
12:52 AM 63.0 °F - 54.0 °F 72% 30.21 in 10.0 mi WNW 4.6 mph - N/A   Clear
1:52 AM 62.1 °F - 54.0 °F 75% 30.20 in 10.0 mi West 4.6 mph - N/A   Clear
2:52 AM 55.9 °F - 53.1 °F 90% 30.19 in 10.0 mi Calm Calm - N/A   Clear
3:52 AM 55.0 °F - 52.0 °F 89% 30.18 in 9.0 mi Calm Calm - N/A   Clear
4:52 AM 54.0 °F - 50.0 °F 86% 30.19 in 10.0 mi Calm Calm - N/A   Clear
5:52 AM 57.9 °F - 53.1 °F 84% 30.19 in 10.0 mi WNW 3.5 mph - N/A   Clear
6:52 AM 57.0 °F - 52.0 °F 83% 30.19 in 10.0 mi WNW 3.5 mph - N/A   Clear
7:52 AM 57.9 °F - 54.0 °F 87% 30.20 in 10.0 mi Calm Calm - N/A   Clear
8:52 AM 66.9 °F - 55.0 °F 66% 30.20 in 10.0 mi WNW 5.8 mph - N/A   Clear
9:52 AM 72.0 °F - 55.9 °F 57% 30.19 in 10.0 mi WNW 6.9 mph - N/A   Clear
10:52 AM 75.9 °F - 57.0 °F 52% 30.17 in 10.0 mi WNW 10.4 mph 16.1 mph N/A   Clear
11:52 AM 79.0 °F - 55.0 °F 44% 30.15 in 10.0 mi NW 11.5 mph - N/A   Clear
12:52 PM 82.0 °F 81.6 °F 55.9 °F 41% 30.13 in 10.0 mi NW 9.2 mph - N/A   Clear
1:52 PM 82.9 °F 82.4 °F 57.0 °F 41% 30.11 in 10.0 mi NW 8.1 mph - N/A   Clear
2:52 PM 84.0 °F 83.5 °F 57.9 °F 41% 30.09 in 10.0 mi Variable 6.9 mph - N/A   Clear
3:52 PM 82.9 °F 82.6 °F 57.9 °F 42% 30.09 in 10.0 mi NNW 8.1 mph - N/A   Clear
4:52 PM 81.0 °F 81.6 °F 60.1 °F 49% 30.09 in 10.0 mi WNW 4.6 mph - N/A   Clear
5:52 PM 77.0 °F - 60.1 °F 56% 30.09 in 10.0 mi West 4.6 mph - N/A   Clear
6:52 PM 70.0 °F - 62.1 °F 76% 30.09 in 10.0 mi Calm Calm - N/A   Clear
7:52 PM 66.0 °F - 60.1 °F 81% 30.10 in 10.0 mi Calm Calm - N/A   Clear
8:52 PM 69.1 °F - 59.0 °F 70% 30.11 in 10.0 mi NW 5.8 mph - N/A   Clear
9:52 PM 66.9 °F - 57.9 °F 73% 30.12 in 10.0 mi North 5.8 mph - N/A   Clear
10:52 PM 68.0 °F - 57.0 °F 68% 30.14 in 10.0 mi North 8.1 mph - N/A   Clear
11:52 PM 66.0 °F - 54.0 °F 65% 30.16 in 10.0 mi North 6.9 mph - N/A   Clear